[[{"header":{"parameterUnit":"m.s-1","parameterCategory":1,"la1":30.2991,"la2":30.254,"lo1":-89.0895,"lo2":-89.0444,"dy":0.0017,"dx":0.0017,"nx":28,"ny":28,"refTime":"2024-11-28T09:00:00:Z","depth":0,"parameterNumber":2,"parameterNumberName":"U-component_of_WINDS"},"data":[0,0,0,0,0,0,0,0,0,0,0,0,0,0,0,0,0,0,0,0,0,0,0,0,0,0,0,0,0,0,0,0,0,0,0,0,0,0,0,0,0,0,0,0,0,0,0,0,0,0,0,0,0,0,0,0,0,0,-1.7643,-1.7644,0,-1.7717,-1.7718,-1.7718,-1.7695,-1.7693,-1.7691,-1.769,-1.7765,-1.7768,-1.7772,0,0,0,0,0,0,0,0,0,0,0,0,0,-1.748,-1.7484,-1.7643,-1.7644,-1.7645,-1.7717,-1.7718,-1.7719,-1.7695,-1.7693,-1.7691,-1.7689,-1.7764,-1.7768,-1.7772,0,0,0,0,0,0,0,0,0,0,0,0,0,-1.7552,-1.7485,-1.7643,-1.7642,-1.7642,-1.7716,-1.7718,-1.7719,-1.7695,-1.7693,-1.7691,-1.7688,-1.7762,-1.7768,-1.7773,-1.7852,0,0,-1.7789,-1.7791,0,0,0,0,0,0,0,0,-1.7548,-1.7558,-1.7641,-1.7642,-1.7643,-1.7694,-1.7688,-1.7764,-1.7696,-1.7675,-1.769,-1.7687,-1.7743,-1.775,-1.7769,-1.7856,-1.7859,-1.7789,-1.7792,-1.7794,-1.7796,0,0,0,0,0,0,0,-1.7543,-1.7555,-1.7672,-1.7642,-1.7643,-1.7637,-1.7645,-1.7702,-1.7722,-1.7677,-1.7675,-1.7684,-1.7743,-1.7764,-1.777,-1.786,-1.7789,-1.7794,-1.7797,-1.7799,-1.8014,-1.8017,0,0,0,0,0,0,-1.7538,-1.7551,-1.767,-1.7674,-1.7589,-1.7642,-1.765,-1.768,-1.7721,-1.7725,-1.7686,-1.7683,-1.7756,-1.7764,-1.7773,-1.7869,-1.7794,-1.7799,-1.7802,-1.8012,-1.8015,-1.8018,0,0,0,0,0,0,-1.7534,-1.7549,-1.7667,-1.7612,-1.7627,-1.7647,-1.7681,-1.7683,-1.7703,-1.7728,-1.7731,-1.7704,-1.7755,-1.7766,-1.7832,-1.7871,-1.7802,-1.7806,-1.8009,-1.8013,-1.8016,-1.806,0,0,0,0,0,0,-1.753,-1.7548,-1.7579,-1.7613,-1.763,-1.7726,-1.7683,-1.7686,-1.7712,-1.7709,-1.7746,-1.7749,-1.7754,-1.7825,-1.7838,-1.7877,-1.781,-1.8005,-1.801,-1.8015,-1.8056,-1.8065,-1.8074,0,0,0,0,0,-1.7524,-1.7588,-1.758,-1.7595,-1.7669,-1.7728,-1.7738,-1.7742,-1.7716,-1.7747,-1.7762,-1.7748,-1.7864,-1.7832,-1.7846,-1.7887,-1.8003,-1.8009,-1.8015,-1.8052,-1.8063,-1.8073,0,0,0,0,0,0,-1.7558,-1.7593,-1.7585,-1.7662,-1.7692,-1.7724,-1.7763,-1.7754,-1.7792,-1.7787,-1.779,-1.7799,-1.7867,-1.7883,-1.7847,-1.7966,-1.793,-1.7939,-1.7953,-1.7964,-1.7973,-1.7968,-1.7815,0,0,0,0,0,-1.7574,-1.762,-1.7648,-1.7713,-1.7729,-1.7743,-1.7769,-1.7769,-1.7801,-1.7814,-1.7834,-1.7865,-1.7908,-1.7937,-1.7978,-1.8057,-1.8064,-1.8092,-1.8101,-1.8108,-1.8117,-1.8159,-1.8171,-1.8037,-1.8037,-1.8037,0,0,-1.7609,-1.7634,-1.7662,-1.772,-1.7744,-1.779,-1.7754,-1.7805,-1.784,-1.7821,-1.7886,-1.7902,-1.7936,-1.8009,-1.8042,-1.8025,-1.8155,-1.8116,-1.8122,-1.8126,-1.8166,-1.8179,-1.819,-1.8041,-1.804,-1.8039,0,0,-1.7696,-1.7719,-1.7776,-1.78,-1.7836,-1.7845,-1.7859,-1.7892,-1.7901,-1.7966,-1.7953,-1.7993,-1.8068,-1.8093,-1.8115,-1.8209,-1.8197,-1.8222,-1.827,-1.8311,-1.8322,-1.8331,-1.8365,-1.8377,-1.823,-1.823,-1.823,0,-1.7735,-1.7805,-1.7807,-1.7859,-1.7884,-1.7869,-1.7926,-1.7949,-1.7997,-1.8014,-1.7994,-1.8087,-1.8109,-1.8187,-1.821,-1.8228,-1.8243,-1.8219,-1.832,-1.8329,-1.8338,-1.837,-1.8383,-1.8233,-1.8233,-1.8232,-1.8232,0,-1.7851,-1.7899,-1.794,-1.7987,-1.8017,-1.8071,-1.808,-1.811,-1.8107,-1.8118,-1.8183,-1.8208,-1.8254,-1.8272,-1.827,-1.835,-1.8338,-1.8319,-1.8283,-1.8354,-1.8384,-1.8396,-1.8237,-1.8236,-1.8235,-1.8234,0,0,-1.7964,-1.8008,-1.8024,-1.8044,-1.8081,-1.8119,-1.8171,-1.8216,-1.8242,-1.8274,-1.8318,-1.8381,-1.8363,-1.8388,-1.8388,-1.8424,-1.8496,-1.84,-1.8401,-1.8417,-1.8586,-1.8601,-1.8615,-1.8488,-1.849,-1.8492,-1.8583,0,-1.8054,-1.8148,-1.815,-1.8236,-1.828,-1.8265,-1.831,-1.8338,-1.8349,-1.8388,-1.8399,-1.8444,-1.8416,-1.8431,-1.8466,-1.848,-1.853,-1.8473,-1.8529,-1.8531,-1.8522,-1.8631,-1.8648,-1.8732,-1.8595,-1.8597,-1.8598,0,-1.8173,-1.8209,-1.8299,-1.8329,-1.8348,-1.8389,-1.843,-1.8467,-1.8497,-1.8502,-1.853,-1.8523,-1.8576,-1.8537,-1.861,-1.8571,-1.8593,-1.8604,-1.8607,-1.8613,-1.857,-1.8641,-1.8759,-1.8773,-1.8617,-1.8615,-1.8614,0,-1.8247,-1.8318,-1.8381,-1.8399,-1.8435,-1.8464,-1.8481,-1.8508,-1.8534,-1.8569,-1.8586,-1.8626,-1.8649,-1.868,-1.8684,-1.8655,-1.8757,-1.8718,-1.8763,-1.8763,-1.8786,-1.8785,-1.8911,-1.8799,-1.8799,-1.8799,-1.8798,0,-1.8349,-1.8405,-1.8415,-1.8454,-1.8515,-1.8516,-1.8577,-1.859,-1.8615,-1.8655,-1.8644,-1.8682,-1.8685,-1.8724,-1.8728,-1.8787,-1.8797,-1.8802,-1.8803,-1.8804,-1.8804,-1.882,-1.8815,-1.8802,-1.8801,-1.88,-1.88,0,-1.8443,-1.8452,-1.8519,-1.8548,-1.8556,-1.86,-1.8624,-1.866,-1.8669,-1.872,-1.8733,-1.8746,-1.8791,-1.8798,-1.8851,-1.8853,-1.8925,-1.8919,-1.8915,-1.8915,-1.8959,-1.8955,-1.91,-1.9119,-1.8994,-1.8995,-1.8996,0,-1.8508,-1.8551,-1.8583,-1.861,-1.8628,-1.867,-1.8697,-1.8698,-1.8726,-1.8762,-1.8795,-1.8838,-1.8874,-1.8946,-1.8961,-1.9,-1.8996,-1.9044,-1.9002,-1.9001,-1.8997,-1.8995,-1.8999,-1.9053,-1.9054,-1.9055,-1.9056,0,-1.8623,-1.8625,-1.8664,-1.8704,-1.8736,-1.8767,-1.8797,-1.8819,-1.8824,-1.8855,-1.8901,-1.8929,-1.8982,-1.9026,-1.9065,-1.9081,-1.9069,-1.9069,-1.9081,-1.9084,-1.908,-1.9083,-1.8938,-1.9066,-1.9065,-1.9064,-1.9064,-1.9063,-1.8706,-1.8742,-1.8771,-1.8814,-1.8836,-1.8863,-1.8899,-1.8912,-1.895,-1.8994,-1.8992,-1.9042,-1.9069,-1.9121,-1.9139,-1.9178,-1.9162,-1.918,-1.9185,-1.919,-1.9194,-1.9073,-1.9185,-1.9185,-1.9184,-1.9184,-1.9184,0,-1.882,-1.8837,-1.8877,-1.8919,-1.8952,-1.8937,-1.8969,-1.8998,-1.9043,-1.9069,-1.9103,-1.9155,-1.9197,-1.9214,-1.9254,-1.9282,-1.9277,-1.9292,-1.9291,-1.9295,-1.9206,-1.9191,-1.9295,-1.9295,-1.9295,-1.9295,-1.9295,-1.9295,-1.8884,-1.8946,-1.895,-1.9022,-1.9038,-1.9088,-1.9107,-1.9132,-1.9153,-1.9211,-1.9246,-1.9256,-1.9278,-1.932,-1.9357,-1.936,-1.9376,-1.9394,-1.9395,-1.9312,-1.9301,-1.929,-1.9277,-1.9397,-1.9397,-1.9481,-1.9481,-1.9482]},{"header":{"parameterUnit":"m.s-1","parameterCategory":1,"la1":30.2991,"la2":30.254,"lo1":-89.0895,"lo2":-89.0444,"dy":0.0017,"dx":0.0017,"nx":28,"ny":28,"refTime":"2024-11-28T09:00:00:Z","depth":0,"parameterNumber":3,"parameterNumberName":"V-component_of_WINDS"},"data":[0,0,0,0,0,0,0,0,0,0,0,0,0,0,0,0,0,0,0,0,0,0,0,0,0,0,0,0,0,0,0,0,0,0,0,0,0,0,0,0,0,0,0,0,0,0,0,0,0,0,0,0,0,0,0,0,0,0,-9.2082,-9.2083,0,-9.2224,-9.2225,-9.2227,-9.2121,-9.2117,-9.2112,-9.2108,-9.2245,-9.2253,-9.2261,0,0,0,0,0,0,0,0,0,0,0,0,0,-9.1711,-9.1718,-9.2081,-9.2083,-9.2085,-9.2223,-9.2225,-9.2227,-9.2122,-9.2116,-9.2111,-9.2105,-9.2243,-9.2252,-9.2262,0,0,0,0,0,0,0,0,0,0,0,0,0,-9.1864,-9.1721,-9.2081,-9.2049,-9.2048,-9.2223,-9.2225,-9.2228,-9.2123,-9.2116,-9.2109,-9.2103,-9.224,-9.2251,-9.2263,-9.2475,0,0,-9.2299,-9.2305,0,0,0,0,0,0,0,0,-9.1856,-9.1878,-9.2052,-9.2052,-9.2051,-9.2148,-9.2145,-9.231,-9.2125,-9.2094,-9.2107,-9.2099,-9.2218,-9.2231,-9.2273,-9.2481,-9.2487,-9.2301,-9.2308,-9.2313,-9.2316,0,0,0,0,0,0,0,-9.1845,-9.1871,-9.2137,-9.2055,-9.2054,-9.2025,-9.204,-9.2176,-9.2193,-9.2096,-9.2089,-9.2108,-9.2216,-9.2262,-9.2275,-9.2489,-9.23,-9.2311,-9.2318,-9.2323,-9.2878,-9.2885,0,0,0,0,0,0,-9.1839,-9.1863,-9.2133,-9.2142,-9.1934,-9.2038,-9.2054,-9.2123,-9.2191,-9.2195,-9.2114,-9.2102,-9.2245,-9.2261,-9.228,-9.2532,-9.2313,-9.2324,-9.2331,-9.287,-9.2879,-9.2887,0,0,0,0,0,0,-9.1831,-9.1864,-9.2127,-9.2001,-9.2032,-9.2052,-9.2131,-9.213,-9.2175,-9.2204,-9.2206,-9.2158,-9.224,-9.2263,-9.2427,-9.2535,-9.2329,-9.234,-9.2861,-9.2873,-9.2883,-9.3039,0,0,0,0,0,0,-9.1821,-9.1862,-9.1944,-9.2003,-9.2039,-9.2276,-9.2137,-9.2138,-9.2197,-9.2184,-9.2246,-9.2249,-9.2236,-9.241,-9.2439,-9.2548,-9.235,-9.2851,-9.2866,-9.288,-9.3024,-9.3054,-9.308,0,0,0,0,0,-9.1808,-9.1981,-9.1949,-9.1982,-9.2143,-9.2282,-9.2302,-9.2286,-9.2206,-9.2288,-9.2307,-9.2247,-9.2519,-9.2428,-9.246,-9.2574,-9.2845,-9.2862,-9.2879,-9.3012,-9.3048,-9.3079,0,0,0,0,0,0,-9.1931,-9.1988,-9.1953,-9.2151,-9.2213,-9.2264,-9.2367,-9.2325,-9.2409,-9.2392,-9.2366,-9.2381,-9.2554,-9.258,-9.2478,-9.2782,-9.2669,-9.2693,-9.2759,-9.2794,-9.2821,-9.2811,-9.2359,0,0,0,0,0,-9.1982,-9.2092,-9.2135,-9.2305,-9.2338,-9.2348,-9.2407,-9.2389,-9.2451,-9.2476,-9.2506,-9.2567,-9.2665,-9.2731,-9.2823,-9.3027,-9.3038,-9.3121,-9.3149,-9.3171,-9.3193,-9.3302,-9.3339,-9.2943,-9.2943,-9.2943,0,0,-9.2086,-9.2131,-9.2202,-9.2331,-9.2376,-9.2489,-9.237,-9.2494,-9.2577,-9.2494,-9.2652,-9.2677,-9.2742,-9.2927,-9.301,-9.2954,-9.3304,-9.3193,-9.3211,-9.322,-9.3323,-9.3361,-9.3394,-9.2955,-9.2953,-9.2951,0,0,-9.2335,-9.238,-9.2527,-9.2576,-9.2648,-9.2654,-9.2689,-9.2747,-9.2761,-9.292,-9.286,-9.2956,-9.3127,-9.3176,-9.3223,-9.3491,-9.344,-9.3522,-9.3667,-9.3774,-9.3805,-9.3832,-9.3927,-9.3962,-9.3543,-9.3543,-9.3543,0,-9.2455,-9.2626,-9.2607,-9.2737,-9.2795,-9.2727,-9.2874,-9.2922,-9.3019,-9.306,-9.2996,-9.3209,-9.3248,-9.3444,-9.351,-9.355,-9.3588,-9.3515,-9.3802,-9.383,-9.3855,-9.3945,-9.3981,-9.3553,-9.3551,-9.355,-9.355,0,-9.277,-9.2889,-9.2998,-9.3097,-9.3167,-9.3305,-9.3305,-9.3377,-9.3353,-9.3365,-9.3526,-9.3571,-9.3671,-9.3716,-9.3693,-9.3909,-9.3872,-9.3806,-9.3692,-9.3903,-9.3987,-9.4022,-9.3566,-9.3563,-9.356,-9.3558,0,0,-9.3099,-9.3188,-9.3228,-9.3273,-9.3347,-9.3437,-9.3571,-9.3672,-9.3734,-9.3803,-9.3914,-9.406,-9.4,-9.4054,-9.4035,-9.4129,-9.4338,-9.4051,-9.4052,-9.4103,-9.4578,-9.4627,-9.4668,-9.4304,-9.431,-9.4315,-9.4572,0,-9.3352,-9.3589,-9.3576,-9.3796,-9.3905,-9.3843,-9.3959,-9.4016,-9.403,-9.4122,-9.4136,-9.4241,-9.4153,-9.4185,-9.4276,-9.4293,-9.4433,-9.4274,-9.4404,-9.4409,-9.4391,-9.4712,-9.4764,-9.5005,-9.4605,-9.4611,-9.4615,0,-9.3678,-9.3762,-9.3995,-9.4054,-9.4098,-9.4204,-9.4295,-9.4385,-9.4447,-9.445,-9.4512,-9.4478,-9.461,-9.4493,-9.4674,-9.4567,-9.4619,-9.4636,-9.4644,-9.4656,-9.4525,-9.4732,-9.5081,-9.5117,-9.4666,-9.4662,-9.4659,0,-9.3896,-9.4066,-9.4227,-9.4267,-9.434,-9.4415,-9.4448,-9.4504,-9.4566,-9.4644,-9.4683,-9.4776,-9.4826,-9.4897,-9.4888,-9.4803,-9.5072,-9.4954,-9.5077,-9.5078,-9.5137,-9.5133,-9.5499,-9.5171,-9.517,-9.5169,-9.5169,0,-9.4179,-9.4324,-9.4326,-9.4426,-9.4585,-9.4568,-9.4725,-9.475,-9.48,-9.4901,-9.4851,-9.4946,-9.4929,-9.5023,-9.5016,-9.5167,-9.519,-9.5195,-9.5191,-9.52,-9.5199,-9.5233,-9.5216,-9.5179,-9.5177,-9.5175,-9.5173,0,-9.4449,-9.4457,-9.4629,-9.4684,-9.4701,-9.4817,-9.4862,-9.4955,-9.4965,-9.5093,-9.5122,-9.5137,-9.5246,-9.5244,-9.5366,-9.5361,-9.5547,-9.5524,-9.5527,-9.5522,-9.5646,-9.5634,-9.6046,-9.6099,-9.5736,-9.574,-9.5743,0,-9.463,-9.474,-9.4808,-9.4874,-9.4913,-9.5019,-9.5082,-9.5068,-9.5135,-9.5215,-9.5298,-9.5403,-9.5486,-9.5661,-9.5681,-9.5775,-9.5753,-9.5891,-9.5767,-9.5772,-9.5755,-9.5749,-9.576,-9.5916,-9.592,-9.5923,-9.5926,0,-9.4949,-9.4948,-9.5043,-9.514,-9.5217,-9.5292,-9.536,-9.5416,-9.5409,-9.5487,-9.5599,-9.5664,-9.579,-9.5894,-9.5984,-9.6014,-9.597,-9.5965,-9.5998,-9.6008,-9.6006,-9.6009,-9.5594,-9.5956,-9.5953,-9.595,-9.5949,-9.5948,-9.518,-9.5275,-9.5339,-9.5446,-9.5496,-9.5562,-9.5652,-9.5674,-9.5769,-9.5873,-9.5858,-9.5983,-9.6041,-9.6157,-9.6196,-9.6292,-9.6243,-9.6291,-9.6303,-9.6316,-9.633,-9.5991,-9.6308,-9.6307,-9.6306,-9.6305,-9.6305,0,-9.5497,-9.5535,-9.5634,-9.5733,-9.5817,-9.577,-9.5843,-9.5915,-9.6027,-9.6086,-9.617,-9.6298,-9.6398,-9.6427,-9.6523,-9.6594,-9.6576,-9.662,-9.6614,-9.6622,-9.6368,-9.633,-9.6633,-9.6633,-9.6633,-9.6633,-9.6633,-9.6633,-9.5672,-9.5831,-9.5837,-9.602,-9.6055,-9.618,-9.6226,-9.6285,-9.6333,-9.648,-9.6564,-9.6583,-9.6629,-9.6729,-9.6818,-9.6823,-9.6861,-9.6914,-9.6911,-9.6673,-9.664,-9.6609,-9.6572,-9.6922,-9.6923,-9.7157,-9.7159,-9.7161]}]]